EHI
34 36 40 33 20 12 9 7 6 6 6 6 4 2 2 2 1 0 1 2 3 3 3 3 3 3 3 3 5 5 4 3 3 2 1 1 2 2 3 4 3 3 6
35 37 39 31 19 12 8 7 7 7 7 6 4 3 2 1 0 0 1 2 3 3 3 3 3 2 2 4 5 5 4 4 4 4 2 1 1 1 2 4 4 4 5
33 33 32 25 17 13 11 11 9 9 9 7 4 3 2 1 0 0 0 1 2 3 3 3 2 2 3 4 5 4 3 4 5 5 4 1 0 0 1 3 5 6 6
31 29 26 22 17 15 15 15 13 11 9 7 4 2 1 0 0 0 0 0 1 1 2 2 1 1 3 3 3 2 3 3 5 5 4 1 0 0 1 3 5 7 7
31 29 26 22 18 17 16 16 15 12 8 7 4 2 0 0 0 0 0 0 0 0 1 1 1 2 2 2 2 1 2 3 4 4 2 1 1 1 1 3 5 6 7
32 29 24 22 19 17 15 14 13 11 8 7 6 4 1 0 0 0 0 0 0 0 1 1 2 2 1 2 3 2 3 4 4 3 2 2 2 3 3 3 4 4 4
32 27 22 20 18 17 16 14 12 10 8 7 7 5 3 1 1 0 0 0 0 1 2 2 2 2 1 1 3 4 5 6 4 2 2 3 4 4 5 5 4 3 3
31 25 20 18 17 16 17 15 12 9 6 5 5 4 3 2 2 1 0 0 0 1 2 2 2 2 1 1 2 4 6 6 4 2 2 3 4 6 7 6 3 2 1
27 23 19 16 14 14 15 15 13 9 5 3 4 4 3 3 2 2 1 1 1 2 3 3 3 4 4 2 2 4 6 6 4 1 1 2 5 9 9 7 4 2 1
23 21 19 15 12 11 13 14 12 9 5 4 4 4 3 2 1 3 3 3 3 4 5 4 5 7 7 7 7 8 8 6 3 1 2 4 9 13 12 10 6 4 4
21 20 18 16 12 10 11 12 11 8 7 6 6 5 4 2 1 3 5 7 7 6 6 7 8 9 11 10 10 10 9 5 2 2 6 11 16 17 15 12 9 7 5
24 21 17 15 13 11 12 13 10 8 8 8 7 7 5 3 2 3 7 10 10 8 7 8 9 9 10 9 9 8 5 3 3 4 10 17 21 19 17 14 10 7 6
28 25 19 16 14 13 15 16 13 11 11 10 10 10 7 4 3 4 8 12 12 9 6 6 6 5 5 5 5 4 2 2 4 7 12 19 21 20 18 14 10 7 6
30 29 25 22 20 20 21 20 16 14 15 14 14 13 10 6 5 8 11 12 11 9 6 5 5 4 3 2 1 1 0 2 6 9 13 17 17 17 16 13 10 8 8
33 33 32 31 31 31 28 22 16 16 17 17 17 17 13 10 10 11 12 13 11 10 10 10 10 8 5 2 1 0 1 3 7 10 12 14 14 13 14 13 12 11 11
39 40 40 40 42 41 33 24 18 17 17 17 18 18 15 13 13 13 14 14 13 12 13 14 13 10 7 4 2 1 1 4 8 10 11 11 12 12 13 14 14 14 14
49 50 47 44 45 45 36 27 20 17 16 17 18 19 16 14 13 14 15 16 16 14 14 15 13 10 6 4 3 1 1 4 7 9 9 10 11 12 13 15 16 15 15
55 55 50 45 45 44 38 31 24 19 17 18 19 20 18 14 12 13 15 17 17 16 14 13 11 8 5 3 2 2 2 4 5 7 9 10 11 12 13 14 15 14 14
59 57 53 49 48 46 40 35 28 23 21 21 20 20 19 16 14 15 16 16 16 16 14 12 10 8 6 4 2 3 4 5 7 7 9 10 11 12 12 12 12 11 11
60 58 55 54 53 49 43 37 32 28 27 24 22 20 19 17 16 16 15 14 15 15 15 13 10 8 7 5 3 4 6 8 10 10 9 9 9 10 11 12 11 10 9
59 58 57 56 56 52 45 39 36 33 30 26 24 23 19 16 16 15 13 13 15 15 16 14 11 8 6 5 5 6 7 9 12 12 11 8 7 8 11 13 13 13 12
55 56 57 56 54 50 45 41 38 36 32 29 28 27 23 18 16 14 13 13 15 15 16 16 14 11 8 7 7 7 7 9 11 12 10 8 7 9 11 13 14 15 16
48 51 53 54 51 48 46 43 40 37 35 34 34 31 26 21 18 15 15 15 14 15 16 16 14 12 11 10 9 8 8 8 9 9 8 7 9 12 13 13 14 15 17
43 46 49 51 50 49 49 46 42 39 36 36 36 33 28 23 19 16 16 16 14 14 15 13 11 10 10 10 10 9 10 10 9 9 7 6 8 12 13 13 13 15 16
42 44 49 51 51 51 50 49 45 40 38 38 37 34 29 24 19 16 15 15 14 13 12 10 8 8 8 8 9 9 10 11 10 9 7 6 7 10 11 12 14 16 17
41 45 50 52 52 50 49 49 46 42 41 40 38 34 29 25 19 15 14 15 15 13 11 8 7 7 7 7 8 8 10 11 10 8 7 6 8 9 10 11 14 17 19
Wind_Speed
13 14 14 13 11 10 10 9 9 9 9 9 9 9 9 9 9 10 10 10 10 10 10 10 10 9 9 9 9 8 8 8 8 9 9 9 9 8 8 9 9 9 11
17 15 14 13 11 10 10 9 9 9 9 9 9 9 9 9 8 9 9 9 9 10 10 10 9 8 8 8 8 8 8 7 7 7 8 8 8 8 7 7 8 7 10
17 15 14 12 11 10 10 10 9 9 9 9 9 9 9 8 8 8 8 8 9 9 9 9 8 8 7 7 7 7 6 6 5 5 5 4 6 8 8 9 10 10 10
17 14 13 12 11 10 10 10 9 9 10 9 9 9 8 8 7 7 7 8 8 8 8 8 8 7 7 7 6 5 5 4 3 3 2 4 5 9 8 8 9 9 8
16 15 14 13 12 12 12 11 10 10 10 9 9 8 8 7 7 7 7 7 8 8 7 7 7 7 6 6 5 4 3 2 2 2 2 4 4 8 8 7 8 8 8
17 16 14 13 13 13 12 11 10 10 9 9 8 8 7 7 7 7 7 7 7 7 7 7 7 6 6 5 4 2 1 2 2 1 2 5 5 7 8 7 8 8 8
16 16 15 14 13 12 11 11 10 9 9 8 8 8 7 6 6 6 6 7 7 7 7 6 6 5 4 4 3 1 1 3 2 1 3 5 5 7 7 7 8 8 8
16 15 14 14 14 12 11 11 10 9 8 8 7 7 6 6 6 6 6 6 7 6 6 6 5 4 4 3 2 1 2 4 1 1 4 5 6 7 6 6 7 8 8
15 14 13 12 12 12 11 11 10 9 8 7 6 6 5 5 5 5 5 6 6 6 6 5 4 3 3 2 2 3 3 4 2 1 4 4 6 7 7 7 8 8 8
13 12 12 12 11 10 10 10 10 9 7 7 6 5 5 4 4 5 6 6 6 6 5 5 4 3 3 3 4 5 4 4 1 2 3 4 6 6 7 8 9 8 8
11 11 10 10 10 10 10 10 9 9 7 6 5 5 4 3 4 4 5 8 7 6 5 5 5 4 4 5 6 5 4 2 1 3 3 5 5 5 7 8 9 9 9
11 10 9 10 8 8 7 7 5 6 6 5 4 4 3 1 1 4 7 8 7 6 6 6 6 5 5 2 4 5 2 1 2 3 3 6 5 6 7 8 9 9 9
10 9 8 9 7 7 5 5 3 2 4 4 3 2 1 1 1 2 3 4 4 6 4 4 5 3 2 1 1 1 1 0 2 3 4 5 6 7 7 7 8 9 9
9 9 8 9 7 6 5 4 3 3 2 3 3 2 1 0 1 2 1 2 1 2 2 1 1 1 1 1 0 0 0 2 3 3 3 6 6 6 6 6 6 8 9
9 9 8 8 6 5 4 2 3 3 2 3 3 2 1 1 1 1 1 1 0 1 1 1 1 1 1 2 2 2 2 3 4 4 3 6 6 6 7 6 6 8 8
8 8 8 8 7 6 4 2 2 3 2 2 2 2 1 1 1 2 1 1 1 0 1 1 1 0 0 1 2 3 3 3 3 4 4 4 5 6 6 6 6 7 8
8 8 8 8 8 6 5 3 3 2 3 2 2 2 1 1 1 1 1 0 1 1 1 1 1 0 0 1 2 2 2 2 2 2 3 3 3 5 6 6 6 6 7
8 8 7 8 9 6 4 3 3 2 3 2 3 2 2 1 1 1 1 0 0 1 0 1 0 1 1 1 1 1 1 1 1 1 1 2 3 3 5 7 6 6 6
9 8 6 6 8 7 5 3 3 3 2 2 3 3 2 2 2 1 1 1 0 0 1 0 1 1 0 1 1 0 0 0 1 1 1 1 2 3 4 6 7 7 7
10 8 7 6 6 6 4 3 2 3 3 2 3 3 3 2 2 1 1 1 1 1 1 1 1 1 1 1 1 0 0 1 1 0 1 1 2 3 4 5 5 5 7
10 9 7 6 5 5 4 3 3 3 2 2 3 4 3 2 2 1 1 1 1 1 0 1 1 0 1 1 0 1 1 1 2 1 0 1 1 1 2 3 4 3 4
9 8 8 7 6 5 4 3 3 3 2 3 3 4 3 2 2 1 2 1 0 1 1 1 1 0 1 0 1 1 1 1 1 1 1 1 1 1 2 3 2 3 3
8 8 7 7 6 5 5 3 3 3 2 3 3 3 2 2 2 1 2 0 0 0 0 1 0 1 1 1 0 0 1 1 1 1 1 1 1 1 1 1 2 2 3
10 8 7 6 6 5 4 4 4 3 3 3 2 2 2 2 2 1 1 1 0 1 0 1 0 1 1 2 1 0 1 0 0 1 1 1 1 1 1 0 1 2 2
9 9 7 6 6 5 4 4 3 3 2 2 3 3 3 2 2 2 2 1 1 1 1 1 1 1 1 2 1 1 1 1 1 1 1 1 1 1 2 2 1 2 2
8 8 8 7 6 5 5 4 3 3 3 3 3 3 3 2 2 2 2 1 1 0 0 0 0 1 2 2 2 2 1 1 1 1 2 2 1 1 2 1 2 2 2
Wind_Direction
103 110 110 105 103 101 100 96 93 91 88 81 78 78 79 80 83 84 87 92 97 100 101 99 98 96 97 98 96 97 100 97 97 99 102 103 106 108 111 118 123 115 117
109 112 110 107 106 104 102 99 95 93 90 83 80 82 83 81 84 86 89 94 96 98 98 96 93 96 99 99 98 101 108 111 110 114 114 110 113 118 116 117 116 119 125
112 116 112 107 108 107 105 101 98 96 92 86 82 83 83 81 83 87 89 94 97 98 102 101 95 95 101 104 103 105 110 114 122 131 134 123 122 123 119 119 121 126 130
117 119 113 113 111 113 111 105 102 99 95 90 86 86 84 82 83 86 90 96 98 101 103 103 102 97 98 102 102 107 117 130 162 183 168 132 119 121 125 127 130 131 134
116 113 115 115 110 113 113 109 105 102 98 93 89 88 86 83 84 85 91 99 99 102 104 103 102 99 99 102 107 108 115 151 218 244 120 106 101 126 132 136 142 142 141
114 115 119 118 113 112 113 111 108 104 101 94 89 88 86 84 84 85 91 98 99 101 102 99 103 102 107 117 120 124 170 244 257 197 135 117 118 135 142 146 150 152 149
115 118 123 123 120 120 119 115 109 106 102 96 91 89 85 83 83 86 95 104 106 107 108 107 111 108 114 129 141 178 253 275 251 185 131 112 126 142 149 158 160 158 158
119 120 126 129 129 129 127 121 116 111 107 102 97 94 92 90 90 93 98 110 112 115 113 111 113 117 123 141 181 242 279 288 301 133 117 115 137 148 155 164 167 165 162
123 128 135 136 135 132 130 129 126 121 118 115 112 110 110 108 108 111 116 118 122 122 121 122 121 130 143 180 230 258 281 296 334 33 99 113 137 146 154 161 168 168 167
126 130 138 141 140 145 140 139 135 133 133 134 136 137 139 139 140 142 141 136 137 137 136 139 150 164 187 218 238 257 274 285 282 85 93 125 140 145 157 162 169 173 172
129 134 138 138 145 149 142 141 148 149 151 151 152 162 172 179 165 160 132 142 152 156 157 165 175 191 214 226 234 247 266 256 115 86 91 123 139 144 153 162 167 172 174
138 140 142 140 146 141 136 140 158 158 156 173 158 167 190 189 153 129 133 149 163 172 179 191 200 210 225 227 227 229 250 229 101 89 102 127 139 144 151 157 164 173 176
138 138 136 137 136 127 125 141 147 147 148 164 150 152 158 164 134 118 135 152 171 182 195 186 199 221 214 224 226 198 233 326 85 92 108 122 135 138 143 152 165 174 176
140 136 134 132 132 126 126 137 140 141 145 141 136 142 130 122 113 104 103 135 175 180 167 174 183 194 252 250 256 7 95 91 96 99 112 122 133 142 147 148 159 172 175
143 139 137 130 123 114 115 137 133 127 137 126 122 115 85 86 57 79 62 73 256 127 130 163 118 48 7 4 3 15 38 74 93 96 113 127 131 138 149 150 154 166 171
142 138 135 129 121 120 123 127 115 126 114 110 102 107 84 62 63 70 53 18 339 42 118 122 119 110 41 26 18 15 38 72 79 109 120 132 135 135 143 151 154 157 166
137 130 130 133 128 130 136 149 130 125 126 120 116 110 97 67 73 93 83 356 347 349 67 69 80 114 163 72 51 33 25 59 68 87 119 130 142 146 140 140 141 142 148
138 132 138 145 139 136 139 145 125 122 120 115 113 107 92 67 71 90 115 65 1 357 55 89 48 61 32 47 41 28 30 36 70 84 104 131 142 143 151 149 149 149 153
135 134 138 135 139 145 144 140 130 115 106 95 92 93 91 70 57 27 74 61 317 8 56 131 89 81 54 68 75 50 21 359 36 104 127 120 139 141 148 155 159 160 164
136 136 140 132 132 139 137 137 128 119 115 105 96 96 97 86 78 26 67 50 353 16 32 40 60 37 8 12 331 11 219 210 217 194 174 152 160 158 163 160 163 169 176
137 141 145 144 138 142 149 159 150 137 133 122 112 108 106 92 78 74 57 70 0 5 20 62 86 82 279 250 259 270 280 234 193 179 187 148 173 167 144 142 156 167 171
140 144 149 149 151 156 149 152 151 146 144 129 121 121 118 108 97 114 74 39 337 343 1 19 29 348 288 266 279 273 273 294 323 220 168 190 195 160 145 146 148 155 148
145 149 154 154 155 163 152 150 149 142 142 128 123 122 126 124 117 79 106 125 330 142 77 282 282 296 292 293 266 274 287 303 350 306 233 213 151 144 148 156 156 154 160
153 153 147 145 147 151 152 162 164 157 152 134 133 128 139 132 126 115 94 87 45 355 32 283 349 286 280 279 284 275 248 267 230 311 301 242 176 163 218 264 162 148 152
152 153 152 149 153 155 160 159 165 150 148 134 135 142 154 152 156 160 142 121 79 22 40 357 5 341 318 299 303 305 303 296 224 219 269 276 272 211 176 202 188 170 168
147 149 149 146 149 155 158 152 154 154 152 147 151 150 162 156 160 159 147 135 137 289 338 300 13 340 320 320 321 322 316 295 271 251 245 248 251 237 195 183 180 168 177